User: anonymous
Location: Unspecified
(0.0000°N, 0.0000°E)
Time: 00:53:20
(UTC+02:00)
Language:

Cosmos 1953 Rocket - Orbit

View from above orbital plane
View from above orbital plane
View from above satellite
View from above satellite

Ground track
Ground track

The orbit data is extracted from the following two-line orbital elements,

1 19211U 88050B   14109.85182903  .00000733  00000-0  88426-4 0  2095
2 19211 082.5287 201.6543 0020863 322.3183 177.0903 14.82363214395738
Epoch (UTC): 19 April 2014 20:26:38
Eccentricity: 0.0020863
inclination: 82.5287°
perigee height: 607 km
apogee height: 636 km
right ascension of ascending node: 201.6543°
argument of perigee: 322.3183°
revolutions per day: 14.82363214
mean anomaly at epoch: 177.0903°
orbit number at epoch: 39573

The dashed part of the orbit path shows where the satellite is in the earth's shadow,  

DLR